Flight Track Log - Related Links

Times and Time Zones

All times are in EDT time to prevent confusion due to time zone crossing. See the UAL5844 flight status page for this flight to view local times or setup timezone preferences in your user account.


Time Position Orientation Groundspeed Altitude Reporting Facility
EDT Latitude Longitude Course Direction KTS MPH feet Rate Location/Type
Wed 02:22:35 PM 40.5011 -80.2803 271° West 167 192 2,200  Level FAA TRACON SMA TRACON (SMA)
Wed 02:22:56 PM 40.5014 -80.2989 271° West 169 194 3,200 2,700 Climbing FAA TRACON SMA TRACON (SMA)
Wed 02:23:15 PM 40.5011 -80.3236 269° West 178 205 4,000 2,000 Climbing FAA TRACON SMA TRACON (SMA)
Wed 02:23:35 PM 40.5006 -80.3464 268° West 207 238 4,500 1,317 Climbing FAA TRACON SMA TRACON (SMA)
Wed 02:23:56 PM 40.4997 -80.3692 267° West 205 236 4,900 600 Climbing FAA TRACON SMA TRACON (SMA)
Wed 02:24:15 PM 40.4983 -80.3953 266° West 211 243 4,900 1,050 Level FAA TRACON SMA TRACON (SMA)
Wed 02:24:36 PM 40.4978 -80.4236 269° West 216 249 5,600 2,700 Climbing FAA TRACON SMA TRACON (SMA)
Wed 02:24:55 PM 40.5000 -80.4478 277° West 214 246 6,700 3,231 Climbing FAA TRACON SMA TRACON (SMA)
Wed 02:25:15 PM 40.5072 -80.4747 289° West 217 250 7,700 2,488 Climbing FAA TRACON SMA TRACON (SMA)
Wed 02:25:36 PM 40.5125 -80.5011 285° West 228 262 8,400 2,066 Climbing FAA TRACON SMA TRACON (SMA)
Wed 02:26:16 PM 40.5272 -80.5547 290° West 238 274 9,800 1,831 Climbing FAA TRACON SMA TRACON (SMA)
Wed 02:26:35 PM 40.5331 -80.5847 284° West 245 282 10,200 1,077 Climbing FAA TRACON SMA TRACON (SMA)
Wed 02:26:55 PM 40.5400 -80.6136 288° West 260 299 10,500 878 Climbing FAA TRACON SMA TRACON (SMA)
Wed 02:27:16 PM 40.5497 -80.6492 290° West 300 345 10,800 1,171 Climbing FAA TRACON SMA TRACON (SMA)
Wed 02:27:36 PM 40.5575 -80.6869 285° West 304 350 11,300 1,500 Climbing FAA TRACON SMA TRACON (SMA)
Wed 02:27:56 PM 40.5658 -80.7200 288° West 307 353 11,800 1,650 Climbing FAA TRACON SMA TRACON (SMA)
Wed 02:28:16 PM 40.5761 -80.7622 288° West 316 364 12,400 1,846 Climbing FAA TRACON SMA TRACON (SMA)
Wed 02:28:35 PM 40.5850 -80.7964 289° West 318 366 13,000 1,846 Climbing FAA TRACON SMA TRACON (SMA)
Wed 02:28:55 PM 40.5931 -80.8311 287° West 320 368 13,600 2,049 Climbing FAA TRACON SMA TRACON (SMA)
Wed 02:29:16 PM 40.6033 -80.8736 288° West 319 367 14,400 2,100 Climbing FAA TRACON SMA TRACON (SMA)
Wed 02:29:35 PM 40.6117 -80.9075 288° West 317 365 15,000 1,500 Climbing FAA TRACON SMA TRACON (SMA)
Wed 02:29:56 PM 40.6214 -80.9372 293° West 316 364 15,400 1,500 Climbing FAA TRACON SMA TRACON (SMA)
Wed 02:30:15 PM 40.6297 -80.9842 283° West 317 365 16,000 1,692 Climbing FAA TRACON SMA TRACON (SMA)
Wed 02:30:35 PM 40.6381 -81.0183 288° West 319 367 16,500 1,317 Climbing FAA TRACON SMA TRACON (SMA)
Wed 02:30:56 PM 40.6478 -81.0461 295° West 321 369 16,900 1,500 Climbing FAA TRACON SMA TRACON (SMA)
Wed 02:31:15 PM 40.6567 -81.0978 283° West 326 375 17,500 1,538 Climbing FAA TRACON SMA TRACON (SMA)
Wed 02:31:35 PM 40.6653 -81.1333 288° West 329 379 17,900 585 Climbing FAA TRACON SMA TRACON (SMA)
Wed 02:31:56 PM 40.6703 -81.1381 324° Northwest 329 379 17,900 1,077 Level FAA TRACON SMA TRACON (SMA)
Wed 02:32:14 PM 40.6867 -81.2100 287° West 334 384 18,600 1,308 Climbing Cleveland Center
Wed 02:33:14 PM 40.7172 -81.3336 288° West 348 400 19,600 1,200 Climbing Cleveland Center
Wed 02:34:14 PM 40.7456 -81.4628 286° West 361 415 21,000 1,300 Climbing Cleveland Center
Wed 02:35:14 PM 40.7675 -81.5756 284° West 361 415 22,200 1,450 Climbing Cleveland Center
Wed 02:36:14 PM 40.7892 -81.7019 283° West 355 409 23,900 1,850 Climbing Cleveland Center
Wed 02:37:14 PM 40.8067 -81.8258 281° West 350 403 25,900 1,550 Climbing Cleveland Center
Wed 02:38:14 PM 40.7928 -81.9381 261° West 320 368 27,000 850 Climbing Cleveland Center
Wed 02:39:14 PM 40.7869 -82.0722 267° West 327 376 27,600 500 Climbing Cleveland Center
Wed 02:40:14 PM 40.8144 -82.2044 285° West 348 400 28,000 -500 Climbing Cleveland Center
Wed 02:41:14 PM 40.8436 -82.3397 286° West 382 440 26,600 -1,000 Descending Cleveland Center
Wed 02:42:14 PM 40.8728 -82.4722 286° West 382 440 26,000 -300 Descending Cleveland Center
Wed 02:43:14 PM 40.8939 -82.5800 285° West 333 383 26,000  Level Cleveland Center
Wed 02:44:14 PM 40.9189 -82.6961 286° West 321 369 26,000  Level Cleveland Center
Wed 02:45:14 PM 40.9456 -82.8236 286° West 343 395 26,000  Level Cleveland Center
Wed 02:46:14 PM 40.9700 -82.9564 284° West 366 421 26,000  Level Cleveland Center
Wed 02:47:14 PM 40.9883 -83.0781 281° West 376 433 26,000  Level Cleveland Center
Wed 02:48:14 PM 41.0142 -83.2306 283° West 376 433 26,000  Level Cleveland Center
Wed 02:49:14 PM 41.0378 -83.3692 283° West 381 438 26,000  Level Cleveland Center
Wed 02:50:14 PM 41.0614 -83.5106 283° West 381 438 26,000  Level Cleveland Center
Wed 02:51:14 PM 41.0831 -83.6467 282° West 381 438 26,000  Level Cleveland Center
Wed 02:52:14 PM 41.1019 -83.7853 280° West 381 438 26,000  Level Cleveland Center
Wed 02:53:14 PM 41.1236 -83.9075 283° West 381 438 26,000  Level Cleveland Center
Wed 02:55:38 PM 41.1744 -84.2425 282° West 387 445 26,000  Level Chicago Center
Wed 02:56:40 PM 41.1958 -84.3819 282° West 386 444 26,000  Level Chicago Center
Wed 02:57:42 PM 41.2172 -84.5233 281° West 390 449 26,000  Level Chicago Center
Wed 02:58:44 PM 41.2364 -84.6636 280° West 388 447 26,000 -145 Level Chicago Center
Wed 02:59:46 PM 41.2419 -84.8333 273° West 383 441 25,700 -484 Descending Chicago Center
Wed 03:00:48 PM 41.2469 -84.9692 273° West 371 427 25,000 -339 Descending Chicago Center
Wed 03:01:50 PM 41.2519 -85.0994 273° West 358 412 25,000  Level Chicago Center
Wed 03:02:52 PM 41.2564 -85.2336 273° West 359 413 25,000  Level Chicago Center
Wed 03:03:54 PM 41.2614 -85.3719 273° West 368 423 25,000  Level Chicago Center
Wed 03:04:56 PM 41.2664 -85.5092 273° West 371 427 25,000  Level Chicago Center
Wed 03:05:58 PM 41.2708 -85.6464 273° West 369 425 25,000  Level Chicago Center
Wed 03:07:00 PM 41.2769 -85.8083 273° West 365 420 25,000  Level Chicago Center
Wed 03:08:02 PM 41.3075 -85.9397 287° West 375 432 25,000 -48 Level Chicago Center
Wed 03:09:04 PM 41.3431 -86.0714 290° West 377 434 24,900 -1,016 Descending Chicago Center
Wed 03:10:06 PM 41.3797 -86.2039 290° West 381 438 22,900 -1,935 Descending Chicago Center
Wed 03:11:08 PM 41.4150 -86.3319 290° West 369 425 20,900 -1,935 Descending Chicago Center
Wed 03:12:10 PM 41.4469 -86.4592 289° West 364 419 18,900 -1,887 Descending Chicago Center
Wed 03:13:12 PM 41.4844 -86.5825 292° West 359 413 17,000 -2,129 Descending Chicago Center
Wed 03:14:14 PM 41.5694 -86.6908 316° Northwest 355 409 14,500 -2,129 Descending Chicago Center
Wed 03:15:16 PM 41.6383 -86.7706 319° Northwest 344 396 12,600 -1,210 Descending Chicago Center
Wed 03:16:18 PM 41.7228 -86.8028 344° North 333 383 12,000 -290 Descending Chicago Center
Wed 03:17:20 PM 41.8131 -86.8178 353° North 329 379 12,000 -435 Level Chicago Center
Wed 03:18:22 PM 41.8931 -86.8981 323° Northwest 317 365 11,100 -823 Descending Chicago Center
Wed 03:19:24 PM 41.9300 -87.0011 296° West 309 356 10,300 -768 Descending Chicago Center
Wed 03:20:27 PM 41.9603 -87.0892 295° West 262 302 9,500 -816 Descending Chicago Center
Wed 03:21:29 PM 41.9811 -87.1767 288° West 250 288 8,600 -919 Descending Chicago Center
Wed 03:22:31 PM 41.9811 -87.2714 270° West 254 292 7,600 -774 Descending Chicago Center
Wed 03:23:33 PM 41.9833 -87.3864 272° West 258 297 7,000 -379 Descending Chicago Center
Wed 03:24:06 PM 41.9833 -87.4500 270° West 254 292 7,000 -276 Level Chicago TRACON
Wed 03:25:00 PM 41.9833 -87.5167 270° West 226 260 6,600 -950 Descending Chicago TRACON
Wed 03:26:06 PM 41.9833 -87.6000 270° West 203 234 5,100 -1,333 Descending Chicago TRACON
Wed 03:27:06 PM 41.9833 -87.6833 270° West 208 239 3,800 -1,250 Descending Chicago TRACON
Wed 03:28:06 PM 41.9833 -87.7667 270° West 205 236 2,600 -1,050 Descending Chicago TRACON
Wed 03:29:06 PM 41.9833 -87.8167 270° West 147 169 1,700 -783 Descending Chicago TRACON
Wed 03:30:01 PM 41.9833 -87.8667 270° West 136 157 1,100 -655 Descending Chicago TRACON
Wed 03:32:00 PM 41.9667 -87.9000 270° West  Level FlightAware Approximate

Login

Don't have an account? Register now (free) for customized features, flight alerts, and more!